Location: Home
(42.5358°N, 72.7383°W)
Time: 09:30:00
(UTC-04:00)

A-11 Canister half - Pass Details

Date: 02 July 2022
Orbit: 1514 x 1685 km, 47.2° (Epoch: 15 August)

Event Time Altitude Azimuth Distance (km) Brightness Sun altitude
Rises 01:06:33 0° 269° (W) 4,937 11.6 -24.4°
Reaches altitude 10° 01:09:47 10° 272° (W) 3,944 11.1 -24.3°
Maximum altitude 01:19:55 68° 355° (N) 1,760 9.4 -24.2°
Drops below altitude 10° 01:29:46 10° 79° (ENE) 3,844 11.3 -23.9°
Sets 01:32:53 0° 82° (E) 4,806 11.8 -23.8°
